Regional Weather Roundup
Issued by NWS Little Rock, AR

Home | Current Version | Previous Version | Graphics & Text | Print | Product List | Glossary On
Versions: 1 2 3 4 5 6 7 8 9 10 11 12 13 14 15 16 17 18 19 20 21 22 23 24 25 26 27 28 29 30 31 32 33 34 35 36 37 38 39 40 41 42 43 44 45 46 47 48 49 50
511
ASUS44 KLZK 231905
RWRLZK

WEATHER ROUNDUP FOR ARKANSAS
NATIONAL WEATHER SERVICE LITTLE ROCK AR
200 PM CDT THU MAR 23 2017

NOTE: "FAIR" INDICATES FEW OR NO CLOUDS BELOW 12,000 FEET WITH NO
SIGNIFICANT WEATHER AND/OR OBSTRUCTIONS TO VISIBILITY.

ARZ001-003-010-029-232000-
NORTHWEST ARKANSAS

CITY           SKY/WX    TMP DP  RH WIND       PRES   REMARKS
FAYETTEVILLE   SUNNY     73  51  46 S17G24    30.05F
FORT SMITH     SUNNY     73  48  41 SE9G18    30.06F
HARRISON       SUNNY     72  54  53 S20       30.10F
BENTONVILLE    SUNNY     73  54  49 S14G21    30.05F
ROGERS         SUNNY     71  55  56 S13G22    30.05F
SILOAM SPGS    SUNNY     72  50  46 S18       30.04F
HIGHFILL       SUNNY     73  54  51 S16G22    30.04F
SPRINGDALE     SUNNY     72  55  56 SE12G20   30.07F
$$

ARZ004-005-016-232000-
NORTH CENTRAL ARKANSAS

CITY           SKY/WX    TMP DP  RH WIND       PRES   REMARKS
BATESVILLE     PTSUNNY   72  46  40 SE5       30.17F
FLIPPIN        SUNNY     73  50  43 S5G20     30.09F
MTN HOME       SUNNY     73  50  44 S10       30.11F
$$

ARZ040-041-232000-
WEST CENTRAL ARKANSAS

CITY           SKY/WX    TMP DP  RH WIND       PRES   REMARKS
MENA           SUNNY     77  52  41 S8        30.09F
MOUNT IDA      SUNNY     75  52  44 VRB7      30.08F
$$

ARZ009-017-025-026-028-232000-
NORTHEAST ARKANSAS

CITY           SKY/WX    TMP DP  RH WIND       PRES   REMARKS
CORNING        FAIR      66  43  42 E9        30.19F
JONESBORO      SUNNY     68  45  43 SE6       30.18F
NEWPORT        SUNNY     69  47  45 MISG      30.17
WALNUT RIDGE   SUNNY     66  45  45 S9        30.18F
BLYTHEVILLE    SUNNY     69  44  40 E5        30.20F
$$

ARZ022-023-033-042-044-232000-
CENTRAL ARKANSAS

CITY           SKY/WX    TMP DP  RH WIND       PRES   REMARKS
LITTLE ROCK    MOSUNNY   75  53  46 VRB6      30.13F
N LITTLE ROCK    N/A     74  53  48 SE7       30.14F
JACKSONVILLE   SUNNY     75  54  48 SE8G17    30.13F
CONWAY           N/A     75  54  46 SE9G18    30.11F
SEARCY         MOSUNNY   74  51  44 SE10      30.17F
HOT SPRINGS    SUNNY     76  54  46 VRB7      30.11F
RUSSELLVILLE   SUNNY     73  50  44 SE8       30.10F
CLINTON        FAIR      70  48  46 E8        30.14F
$$

ARZ036-232000-
EAST ARKANSAS

CITY           SKY/WX    TMP DP  RH WIND       PRES   REMARKS
WEST MEMPHIS   SUNNY     74  47  38 S8        30.17F
$$

ARZ050-053-066-070-073-232000-
SOUTHWEST ARKANSAS

CITY           SKY/WX    TMP DP  RH WIND       PRES   REMARKS
ARKADELPHIA    FAIR      79  57  46 S12       30.11F
CAMDEN         SUNNY     84  48  28 S9G18     30.11F
TEXARKANA      SUNNY     79  58  48 SE15      30.09F
EL DORADO      SUNNY     82  50  32 S14G20    30.12F
DE QUEEN       SUNNY     76  56  49 SE9       30.06F
$$

ARZ056-057-069-232000-
SOUTHEAST ARKANSAS

CITY           SKY/WX    TMP DP  RH WIND       PRES   REMARKS
PINE BLUFF     SUNNY     81  57  43 S14G22    30.13F
STUTTGART      SUNNY     77  48  36 SE10      30.15F
MONTICELLO     SUNNY     81  56  42 S10G18    30.14F

$$






USA.gov is the U.S. government's official web portal to all federal, state and local government web resources and services.